Weather in Nimes

France     43°50′24″N   4°21′54″E
temp.,
°C
wind,
m/s
gust,
m/s
humid.,
%
clouds,
%
prec.,
mm/h
press.,
hPa
HPBL,
m
6 march, sat
sat601:00+9n4106312 0.0 1021494
04:00+7n410640 0.0 1021409
07:00+7n412654 0.0 1023379
10:00+10nne47600 0.0 1024431
13:00+14ne22530 0.0 1023777
16:00+16sse34555 0.1 10231174
19:00+12s34784 0.1 1023265
22:00+11s258695 0.1 1025314
7 march, sun
sun701:00+10sse268197 0.4 1025400
04:00+10ese2682100 0.1 1023417
07:00+9ne238299 0.1 102390
10:00+12ene236896 0.0 1023506
13:00+14sse225692 0.1 10221071
16:00+14ssw225472 0.0 10201112
19:00+11wsw236938 0.0 1019128
22:00+10wsw12735 0.0 102082
8 march, mon
mon801:00+9nnw237811 0.0 101986
04:00+8nnw23791 0.0 1018102
07:00+8nnw34732 0.0 1018128
10:00+12n59540 0.0 1017888
13:00+16n57440 0.0 10171494
16:00+16nne56420 0.0 10151636
19:00+12nne512480 0.0 1016515
22:00+11n613470 0.0 1017476
9 march, tue
tue901:00+8nnw36600 0.0 1018183
04:00+7nnw36580 0.0 1018137
07:00+6nnw35570 0.0 1018133
10:00+10n58440 0.0 1019683
13:00+14n45350 0.0 10181336
16:00+15nne45340 0.0 10171558
19:00+11nne410440 0.0 1018554
22:00+9nnw37490 0.0 1021293
10 march, wed
wed1001:00+7nnw35520 0.0 1022146
04:00+6nnw36520 0.0 1022175
07:00+5nnw23510 0.0 102392
10:00+9n35390 0.0 1024362
13:00+13nw232850 0.0 1023802
16:00+15sw322928 0.0 1022762
19:00+10ssw354619 0.0 1023149
22:00+9ssw23643 0.0 1024113